TimeCDT,TemperatureF,Dew PointF,Humidity,Sea Level PressureIn,VisibilityMPH,Wind Direction,Wind SpeedMPH,Gust SpeedMPH,PrecipitationIn,Events,Conditions,WindDirDegrees,DateUTC
12:15 AM,70.7,61.7,73,29.61,10.0,SE,13.8,23.0,N/A,,Clear,140,2013-03-10 06:15:00
12:35 AM,70.7,61.5,73,29.63,10.0,SSE,10.4,18.4,N/A,,Clear,150,2013-03-10 06:35:00
12:55 AM,70.3,61.3,73,29.62,10.0,SSE,9.2,16.1,N/A,,Clear,150,2013-03-10 06:55:00
1:15 AM,70.0,61.0,73,29.63,10.0,SSE,11.5,-,N/A,,Clear,150,2013-03-10 07:15:00
1:35 AM,69.8,60.8,73,29.61,10.0,SE,12.7,18.4,N/A,,Clear,140,2013-03-10 07:35:00
3:15 AM,69.3,60.8,74,29.61,10.0,SSE,6.9,-,N/A,,Clear,150,2013-03-10 08:15:00
3:35 AM,68.9,60.8,75,29.61,10.0,SSE,6.9,-,N/A,,Clear,160,2013-03-10 08:35:00
3:55 AM,68.9,61.0,76,29.61,10.0,SSE,6.9,-,N/A,,Clear,160,2013-03-10 08:55:00
4:15 AM,68.0,60.8,78,29.62,10.0,SSE,3.5,-,N/A,,Clear,160,2013-03-10 09:15:00
5:55 AM,70.2,61.2,73,29.72,10.0,NNW,3.5,-,N/A,,Overcast,330,2013-03-10 10:55:00
6:15 AM,70.2,61.2,73,29.74,10.0,NW,10.4,-,N/A,,Overcast,320,2013-03-10 11:15:00
6:35 AM,69.6,49.8,49,29.77,10.0,North,23.0,33.4,N/A,,Overcast,350,2013-03-10 11:35:00
7:15 AM,68.0,43.7,41,29.80,10.0,North,16.1,27.6,N/A,,Scattered Clouds,360,2013-03-10 12:15:00
7:35 AM,67.3,42.3,40,29.81,10.0,North,16.1,19.6,N/A,,Clear,350,2013-03-10 12:35:00
7:55 AM,66.6,42.3,41,29.83,10.0,NNW,15.0,20.7,N/A,,Clear,340,2013-03-10 12:55:00
8:15 AM,66.2,41.9,41,29.84,10.0,NNW,10.4,16.1,N/A,,Clear,340,2013-03-10 13:15:00
8:35 AM,66.4,41.9,41,29.86,10.0,NNW,12.7,17.3,N/A,,Clear,330,2013-03-10 13:35:00
8:55 AM,67.1,42.8,41,29.87,10.0,NNW,12.7,16.1,N/A,,Clear,330,2013-03-10 13:55:00
9:15 AM,68.2,40.6,37,29.88,10.0,NNW,15.0,19.6,N/A,,Clear,330,2013-03-10 14:15:00
9:35 AM,69.4,37.8,31,29.89,10.0,NNW,12.7,20.7,N/A,,Clear,340,2013-03-10 14:35:00
9:55 AM,70.7,35.4,27,29.91,10.0,North,16.1,24.2,N/A,,Clear,350,2013-03-10 14:55:00
10:15 AM,71.2,32.5,24,29.92,10.0,NNW,18.4,26.5,N/A,,Clear,340,2013-03-10 15:15:00
10:35 AM,72.7,29.3,20,29.93,10.0,NNW,17.3,23.0,N/A,,Clear,330,2013-03-10 15:35:00
10:55 AM,72.9,28.9,20,29.94,10.0,NNW,13.8,21.9,N/A,,Clear,340,2013-03-10 15:55:00
11:15 AM,73.9,27.5,18,29.94,10.0,North,16.1,23.0,N/A,,Clear,350,2013-03-10 16:15:00
11:35 AM,74.3,26.2,17,29.94,10.0,North,13.8,26.5,N/A,,Clear,10,2013-03-10 16:35:00
11:55 AM,74.8,25.5,16,29.94,10.0,NNE,11.5,21.9,N/A,,Clear,30,2013-03-10 16:55:00
12:15 PM,76.1,25.2,15,29.94,10.0,North,15.0,19.6,N/A,,Clear,350,2013-03-10 17:15:00
12:35 PM,76.5,23.5,14,29.94,10.0,North,13.8,24.2,N/A,,Clear,350,2013-03-10 17:35:00
12:55 PM,77.5,22.6,13,29.93,10.0,North,12.7,23.0,N/A,,Clear,10,2013-03-10 17:55:00
1:15 PM,77.5,21.0,12,29.92,10.0,NNW,13.8,20.7,N/A,,Clear,340,2013-03-10 18:15:00
1:35 PM,78.3,19.4,11,29.92,10.0,NNW,18.4,25.3,N/A,,Clear,330,2013-03-10 18:35:00
1:55 PM,79.0,19.0,11,29.91,10.0,North,12.7,19.6,N/A,,Clear,360,2013-03-10 18:55:00
2:15 PM,79.3,17.2,10,29.90,10.0,NNW,15.0,23.0,N/A,,Clear,340,2013-03-10 19:15:00
2:35 PM,79.3,16.7,10,29.89,10.0,NNW,13.8,21.9,N/A,,Clear,340,2013-03-10 19:35:00
2:55 PM,79.5,16.5,9,29.89,10.0,NNW,15.0,24.2,N/A,,Clear,330,2013-03-10 19:55:00
3:35 PM,80.4,14.7,8,29.87,10.0,NNW,18.4,24.2,N/A,,Clear,330,2013-03-10 20:35:00
3:55 PM,80.2,14.5,8,29.86,10.0,North,10.4,19.6,N/A,,Clear,360,2013-03-10 20:55:00
4:15 PM,79.9,14.4,8,29.87,10.0,NNW,12.7,20.7,N/A,,Clear,340,2013-03-10 21:15:00
4:35 PM,79.9,14.0,8,29.86,10.0,North,15.0,21.9,N/A,,Clear,350,2013-03-10 21:35:00
4:55 PM,79.3,13.6,8,29.86,10.0,NNW,12.7,25.3,N/A,,Clear,340,2013-03-10 21:55:00
5:35 PM,78.3,13.1,8,29.87,10.0,NNW,16.1,25.3,N/A,,Clear,340,2013-03-10 22:35:00
5:55 PM,78.3,13.5,9,29.87,10.0,North,15.0,24.2,N/A,,Clear,350,2013-03-10 22:55:00
6:15 PM,77.7,13.3,9,29.87,10.0,NNW,13.8,20.7,N/A,,Clear,340,2013-03-10 23:15:00
6:35 PM,76.5,13.8,9,29.88,10.0,North,16.1,21.9,N/A,,Clear,350,2013-03-10 23:35:00
7:15 PM,74.3,14.0,10,29.90,10.0,North,10.4,18.4,N/A,,Clear,350,2013-03-11 00:15:00
7:35 PM,73.2,14.9,11,29.91,10.0,North,10.4,18.4,N/A,,Clear,350,2013-03-11 00:35:00
7:55 PM,72.0,15.1,11,29.93,10.0,North,10.4,-,N/A,,Clear,350,2013-03-11 00:55:00
8:15 PM,70.7,15.8,12,29.94,10.0,North,8.1,-,N/A,,Clear,350,2013-03-11 01:15:00
9:55 PM,65.8,16.9,15,30.02,10.0,NNW,6.9,-,N/A,,Clear,340,2013-03-11 02:55:00
10:15 PM,64.6,17.6,16,30.04,10.0,NNW,5.8,-,N/A,,Clear,340,2013-03-11 03:15:00
12:35 AM,61.0,22.1,22,30.10,10.0,North,6.9,-,N/A,,Clear,10,2013-03-11 05:35:00
12:55 AM,60.8,22.8,23,30.10,10.0,North,9.2,-,N/A,,Clear,360,2013-03-11 05:55:00